| time (UTC) | temp F | wind direction | speed knots | gust knots | rain 1hr in | rain 24hr in | rain mn in | humidity % | barometer mb |
| 20260506024533 | 68 | 190 | 0.0 | 1.7 | 0.00 | 0.00 | 0.00 | 55 | 1014.7 |
| 20260506024004 | 68 | 186 | 0.0 | 1.7 | 0.00 | 0.00 | 0.00 | 54 | 1014.6 |
| 20260506023503 | 68 | 186 | 0.0 | 1.7 | 0.00 | 0.00 | 0.00 | 54 | 1014.5 |
| 20260506023012 | 68 | 189 | 0.0 | 1.7 | 0.00 | 0.00 | 0.00 | 54 | 1014.4 |
| 20260506022507 | 68 | 196 | 0.0 | 1.7 | 0.00 | 0.00 | 0.00 | 54 | 1014.5 |
| 20260506022007 | 69 | 134 | 0.0 | 1.7 | 0.00 | 0.00 | 0.00 | 52 | 1014.4 |
| 20260506021510 | 69 | 130 | 0.0 | 1.7 | 0.00 | 0.00 | 0.00 | 53 | 1014.3 |
| 20260506021003 | 69 | 128 | 0.0 | 1.7 | 0.00 | 0.00 | 0.00 | 52 | 1014.3 |
| 20260506020503 | 69 | 136 | 0.0 | 1.7 | 0.00 | 0.00 | 0.00 | 52 | 1014.1 |
| 20260506020016 | 69 | 123 | 0.0 | 1.7 | 0.00 | 0.00 | 0.00 | 52 | 1014.0 |
| 20260506015503 | 69 | 30 | 0.0 | 1.7 | 0.00 | 0.00 | 0.00 | 52 | 1014.1 |
| 20260506015003 | 69 | 49 | 0.0 | 1.7 | 0.00 | 0.00 | 0.00 | 52 | 1014.2 |
| 20260506014520 | 69 | 80 | 0.0 | 1.7 | 0.00 | 0.00 | 0.00 | 52 | 1014.3 |
| 20260506014005 | 70 | 46 | 0.0 | 1.7 | 0.00 | 0.00 | 0.00 | 51 | 1014.3 |
| 20260506013505 | 70 | 24 | 0.0 | 0.9 | 0.00 | 0.00 | 0.00 | 51 | 1014.3 |
| 20260506013016 | 70 | 24 | 0.0 | 0.9 | 0.00 | 0.00 | 0.00 | 51 | 1014.3 |
| 20260506012503 | 70 | 103 | 0.0 | 0.0 | 0.00 | 0.00 | 0.00 | 51 | 1014.0 |
| 20260506012003 | 70 | 77 | 0.0 | 1.7 | 0.00 | 0.00 | 0.00 | 51 | 1014.1 |
| 20260506011517 | 71 | 90 | 0.0 | 1.7 | 0.00 | 0.00 | 0.00 | 51 | 1014.1 |
| 20260506011004 | 71 | 88 | 0.0 | 1.7 | 0.00 | 0.00 | 0.00 | 49 | 1014.1 |
| 20260506010504 | 71 | 70 | 0.0 | 1.7 | 0.00 | 0.00 | 0.00 | 48 | 1014.2 |
| 20260506010014 | 71 | 41 | 0.0 | 1.7 | 0.00 | 0.00 | 0.00 | 48 | 1014.2 |
| 20260506005504 | 71 | 188 | 0.0 | 1.7 | 0.00 | 0.00 | 0.00 | 47 | 1014.0 |
| 20260506005007 | 72 | 64 | 0.0 | 1.7 | 0.00 | 0.00 | 0.00 | 47 | 1014.2 |
| 20260506004517 | 72 | 75 | 0.0 | 1.7 | 0.00 | 0.00 | 0.00 | 46 | 1014.2 |
| 20260506004006 | 72 | 190 | 0.0 | 1.7 | 0.00 | 0.00 | 0.00 | 46 | 1014.3 |
| 20260506003509 | 72 | 141 | 0.0 | 1.7 | 0.00 | 0.00 | 0.00 | 46 | 1014.3 |
| 20260506003018 | 72 | 101 | 0.0 | 1.7 | 0.00 | 0.00 | 0.00 | 45 | 1014.4 |
| 20260506002506 | 73 | 154 | 0.0 | 1.7 | 0.00 | 0.00 | 0.00 | 45 | 1014.4 |
| 20260506002007 | 73 | 203 | 0.0 | 1.7 | 0.00 | 0.00 | 0.00 | 46 | 1014.3 |
| 20260506001512 | 73 | 161 | 0.0 | 1.7 | 0.00 | 0.00 | 0.00 | 45 | 1014.3 |
| 20260506001003 | 73 | 9 | 0.0 | 1.7 | 0.00 | 0.00 | 0.00 | 46 | 1014.3 |
| 20260506000507 | 74 | 351 | 0.0 | 1.7 | 0.00 | 0.00 | 0.00 | 44 | 1014.1 |
| 20260506000014 | 74 | 167 | 0.0 | 2.6 | 0.00 | 0.00 | 0.00 | 45 | 1014.2 |
| 20260505235506 | 74 | 86 | 0.0 | 2.6 | 0.00 | 0.00 | 0.00 | 42 | 1013.9 |
| 20260505235004 | 74 | 117 | 0.0 | 2.6 | 0.00 | 0.00 | 0.00 | 43 | 1013.9 |
| 20260505234528 | 74 | 96 | 0.0 | 1.7 | 0.00 | 0.00 | 0.00 | 44 | 1014.1 |
| 20260505234005 | 74 | 124 | 0.0 | 1.7 | 0.00 | 0.00 | 0.00 | 44 | 1014.1 |
| 20260505233502 | 74 | 76 | 0.0 | 1.7 | 0.00 | 0.00 | 0.00 | 43 | 1014.1 |
| 20260505233021 | 75 | 103 | 0.0 | 1.7 | 0.00 | 0.00 | 0.00 | 44 | 1014.1 |
| 20260505232509 | 75 | 333 | 0.0 | 1.7 | 0.00 | 0.00 | 0.00 | 44 | 1014.1 |
| 20260505232005 | 75 | 177 | 0.0 | 1.7 | 0.00 | 0.00 | 0.00 | 44 | 1014.1 |
| 20260505231518 | 75 | 264 | 0.0 | 1.7 | 0.00 | 0.00 | 0.00 | 43 | 1014.0 |
| 20260505231006 | 75 | 360 | 0.0 | 1.7 | 0.00 | 0.00 | 0.00 | 43 | 1014.0 |
| 20260505230503 | 76 | 59 | 0.9 | 1.7 | 0.00 | 0.00 | 0.00 | 44 | 1014.0 |
| 20260505230041 | 76 | 321 | 0.0 | 2.6 | 0.00 | 0.00 | 0.00 | 43 | 1013.9 |
| 20260505225509 | 76 | 17 | 0.9 | 2.6 | 0.00 | 0.00 | 0.00 | 46 | 1013.6 |
| 20260505225008 | 76 | 352 | 0.0 | 4.3 | 0.00 | 0.00 | 0.00 | 44 | 1013.7 |
| 20260505224521 | 76 | 344 | 0.9 | 4.3 | 0.00 | 0.00 | 0.00 | 42 | 1013.9 |
| 20260505224006 | 76 | 197 | 0.0 | 1.7 | 0.00 | 0.00 | 0.00 | 45 | 1013.8 |
| 20260505223505 | 76 | 132 | 0.0 | 2.6 | 0.00 | 0.00 | 0.00 | 43 | 1013.7 |
| 20260505223021 | 76 | 102 | 0.0 | 2.6 | 0.00 | 0.00 | 0.00 | 41 | 1013.7 |
| 20260505222508 | 76 | 143 | 0.0 | 2.6 | 0.00 | 0.00 | 0.00 | 41 | 1013.9 |
| 20260505222009 | 77 | 39 | 0.0 | 1.7 | 0.00 | 0.00 | 0.00 | 45 | 1013.9 |
| 20260505221522 | 77 | 153 | 0.0 | 1.7 | 0.00 | 0.00 | 0.00 | 45 | 1013.8 |
| 20260505221010 | 77 | 161 | 0.0 | 2.6 | 0.00 | 0.00 | 0.00 | 42 | 1013.8 |
| 20260505220506 | 77 | 9 | 0.0 | 2.6 | 0.00 | 0.00 | 0.00 | 42 | 1013.6 |
| 20260505220030 | 77 | 186 | 0.0 | 1.7 | 0.00 | 0.00 | 0.00 | 42 | 1013.6 |
| 20260505215507 | 77 | 360 | 0.0 | 2.6 | 0.00 | 0.00 | 0.00 | 40 | 1013.5 |
| 20260505215007 | 77 | 189 | 0.0 | 6.1 | 0.00 | 0.00 | 0.00 | 40 | 1013.6 |
| 20260505214520 | 77 | 218 | 0.9 | 6.1 | 0.00 | 0.00 | 0.00 | 38 | 1013.9 |
| 20260505214012 | 77 | 285 | 0.0 | 1.7 | 0.00 | 0.00 | 0.00 | 41 | 1013.9 |
| 20260505213507 | 77 | 228 | 0.0 | 2.6 | 0.00 | 0.00 | 0.00 | 41 | 1013.8 |
| 20260505213023 | 77 | 63 | 0.9 | 2.6 | 0.00 | 0.00 | 0.00 | 39 | 1014.0 |
| 20260505212507 | 77 | 147 | 0.0 | 1.7 | 0.00 | 0.00 | 0.00 | 42 | 1013.9 |
| 20260505212007 | 77 | 9 | 0.0 | 2.6 | 0.00 | 0.00 | 0.00 | 40 | 1014.1 |
| 20260505211522 | 78 | 207 | 0.0 | 2.6 | 0.00 | 0.00 | 0.00 | 39 | 1014.0 |
| 20260505211009 | 78 | 317 | 0.0 | 2.6 | 0.00 | 0.00 | 0.00 | 41 | 1014.0 |
| 20260505210509 | 78 | 16 | 0.0 | 2.6 | 0.00 | 0.00 | 0.00 | 41 | 1014.0 |
| 20260505210014 | 78 | 21 | 0.0 | 2.6 | 0.00 | 0.00 | 0.00 | 40 | 1013.9 |
| 20260505205504 | 78 | 298 | 0.9 | 5.2 | 0.00 | 0.00 | 0.00 | 39 | 1014.1 |
| 20260505205004 | 78 | 352 | 0.0 | 6.1 | 0.00 | 0.00 | 0.00 | 41 | 1014.2 |
| 20260505204507 | 78 | 333 | 0.9 | 6.1 | 0.00 | 0.00 | 0.00 | 39 | 1014.2 |
| 20260505204003 | 78 | 173 | 0.0 | 5.2 | 0.00 | 0.00 | 0.00 | 40 | 1014.4 |
| 20260505203508 | 78 | 111 | 0.0 | 4.3 | 0.00 | 0.00 | 0.00 | 39 | 1014.5 |
| 20260505203004 | 78 | 84 | 0.9 | 3.5 | 0.00 | 0.00 | 0.00 | 40 | 1014.6 |
| 20260505202503 | 78 | 296 | 0.0 | 3.5 | 0.00 | 0.00 | 0.00 | 43 | 1014.5 |
| 20260505202007 | 78 | 310 | 0.0 | 3.5 | 0.00 | 0.00 | 0.00 | 41 | 1014.6 |
| 20260505201512 | 78 | 178 | 0.0 | 0.9 | 0.00 | 0.00 | 0.00 | 40 | 1014.7 |
| 20260505201003 | 78 | 11 | 0.0 | 4.3 | 0.00 | 0.00 | 0.00 | 41 | 1014.6 |
| 20260505200503 | 78 | 323 | 0.0 | 3.5 | 0.00 | 0.00 | 0.00 | 40 | 1014.8 |
| 20260505200008 | 78 | 68 | 0.0 | 2.6 | 0.00 | 0.00 | 0.00 | 39 | 1015.0 |
| 20260505195502 | 78 | 152 | 0.0 | 2.6 | 0.00 | 0.00 | 0.00 | 40 | 1015.0 |
| 20260505195003 | 78 | 35 | 0.9 | 2.6 | 0.00 | 0.00 | 0.00 | 41 | 1015.1 |
| 20260505194517 | 79 | 94 | 0.9 | 2.6 | 0.00 | 0.00 | 0.00 | 43 | 1015.2 |
| 20260505194006 | 79 | 346 | 0.0 | 2.6 | 0.00 | 0.00 | 0.00 | 42 | 1015.3 |
| 20260505193504 | 79 | 114 | 0.0 | 2.6 | 0.00 | 0.00 | 0.00 | 39 | 1015.5 |
| 20260505193016 | 79 | 101 | 0.0 | 1.7 | 0.00 | 0.00 | 0.00 | 40 | 1015.4 |
| 20260505192511 | 79 | 162 | 0.0 | 2.6 | 0.00 | 0.00 | 0.00 | 42 | 1015.4 |
| 20260505192004 | 79 | 185 | 0.0 | 5.2 | 0.00 | 0.00 | 0.00 | 42 | 1015.4 |
| 20260505191507 | 79 | 170 | 0.9 | 5.2 | 0.00 | 0.00 | 0.00 | 38 | 1015.3 |
| 20260505191003 | 80 | 332 | 0.9 | 5.2 | 0.00 | 0.00 | 0.00 | 39 | 1015.4 |
| 20260505190503 | 80 | 97 | 0.0 | 5.2 | 0.00 | 0.00 | 0.00 | 39 | 1015.5 |
| 20260505190011 | 80 | 253 | 0.0 | 1.7 | 0.00 | 0.00 | 0.00 | 41 | 1015.5 |
| 20260505185503 | 80 | 150 | 0.0 | 2.6 | 0.00 | 0.00 | 0.00 | 42 | 1015.4 |
| 20260505185003 | 80 | 169 | 0.0 | 3.5 | 0.00 | 0.00 | 0.00 | 42 | 1015.5 |
| 20260505184506 | 81 | 175 | 0.0 | 3.5 | 0.00 | 0.00 | 0.00 | 39 | 1015.7 |
| 20260505184005 | 81 | 277 | 0.0 | 1.7 | 0.00 | 0.00 | 0.00 | 42 | 1015.7 |
| 20260505183505 | 81 | 126 | 0.0 | 1.7 | 0.00 | 0.00 | 0.00 | 38 | 1015.7 |
| 20260505183022 | 81 | 9 | 0.0 | 3.5 | 0.00 | 0.00 | 0.00 | 41 | 1015.9 |
| 20260505182503 | 82 | 251 | 0.0 | 3.5 | 0.00 | 0.00 | 0.00 | 40 | 1015.9 |
| 20260505182007 | 82 | 36 | 0.0 | 2.6 | 0.00 | 0.00 | 0.00 | 39 | 1015.9 |
| 20260505181522 | 82 | 298 | 0.0 | 2.6 | 0.00 | 0.00 | 0.00 | 40 | 1016.2 |
| 20260505181004 | 82 | 327 | 0.9 | 2.6 | 0.00 | 0.00 | 0.00 | 41 | 1016.3 |
| 20260505180504 | 82 | 51 | 0.0 | 4.3 | 0.00 | 0.00 | 0.00 | 42 | 1016.3 |
| 20260505180017 | 82 | 160 | 0.0 | 4.3 | 0.00 | 0.00 | 0.00 | 39 | 1016.3 |
| 20260505175503 | 82 | 350 | 0.0 | 3.5 | 0.00 | 0.00 | 0.00 | 38 | 1016.4 |
| 20260505175003 | 82 | 309 | 0.0 | 3.5 | 0.00 | 0.00 | 0.00 | 38 | 1016.5 |
| 20260505174512 | 82 | 146 | 0.0 | 2.6 | 0.00 | 0.00 | 0.00 | 41 | 1016.4 |
| 20260505174007 | 82 | 59 | 0.0 | 2.6 | 0.00 | 0.00 | 0.00 | 41 | 1016.6 |
| 20260505173503 | 82 | 88 | 0.0 | 5.2 | 0.00 | 0.00 | 0.00 | 42 | 1016.7 |
| 20260505173012 | 82 | 360 | 0.9 | 5.2 | 0.00 | 0.00 | 0.00 | 41 | 1016.7 |
| 20260505172510 | 82 | 169 | 0.9 | 4.3 | 0.00 | 0.00 | 0.00 | 42 | 1016.7 |
| 20260505172009 | 81 | 295 | 0.9 | 3.5 | 0.00 | 0.00 | 0.00 | 40 | 1016.6 |
| 20260505171508 | 81 | 120 | 0.0 | 3.5 | 0.00 | 0.00 | 0.00 | 45 | 1016.7 |
| 20260505171009 | 81 | 32 | 0.9 | 3.5 | 0.00 | 0.00 | 0.00 | 42 | 1016.8 |
| 20260505170505 | 80 | 319 | 0.9 | 4.3 | 0.00 | 0.00 | 0.00 | 44 | 1016.7 |
| 20260505170025 | 80 | 318 | 0.9 | 4.3 | 0.00 | 0.00 | 0.00 | 46 | 1016.8 |
| 20260505165503 | 80 | 185 | 0.9 | 3.5 | 0.00 | 0.00 | 0.00 | 39 | 1016.8 |
| 20260505165002 | 79 | 5 | 0.9 | 5.2 | 0.00 | 0.00 | 0.00 | 42 | 1016.7 |
| 20260505164508 | 79 | 296 | 0.9 | 5.2 | 0.00 | 0.00 | 0.00 | 41 | 1016.6 |
| 20260505164003 | 79 | 138 | 0.9 | 2.6 | 0.00 | 0.00 | 0.00 | 43 | 1016.6 |
| 20260505163509 | 78 | 101 | 0.9 | 3.5 | 0.00 | 0.00 | 0.00 | 43 | 1016.5 |
| 20260505163015 | 78 | 112 | 0.9 | 3.5 | 0.00 | 0.00 | 0.00 | 43 | 1016.6 |
| 20260505162503 | 78 | 306 | 0.9 | 4.3 | 0.00 | 0.00 | 0.00 | 45 | 1016.5 |
| 20260505162007 | 77 | 143 | 0.9 | 4.3 | 0.00 | 0.00 | 0.00 | 44 | 1016.6 |
| 20260505161518 | 77 | 328 | 0.9 | 3.5 | 0.00 | 0.00 | 0.00 | 45 | 1016.6 |
| 20260505161007 | 76 | 173 | 0.9 | 3.5 | 0.00 | 0.00 | 0.00 | 54 | 1016.8 |
| 20260505160503 | 75 | 59 | 0.9 | 3.5 | 0.00 | 0.00 | 0.00 | 55 | 1016.9 |
| 20260505153012 | 70 | 233 | 0.0 | 2.6 | 0.00 | 0.00 | 0.00 | 61 | 1017.2 |
| 20260505152506 | 68 | 100 | 0.0 | 2.6 | 0.00 | 0.00 | 0.00 | 60 | 1017.1 |
| 20260505152003 | 67 | 302 | 0.0 | 1.7 | 0.00 | 0.00 | 0.00 | 64 | 1017.1 |
| 20260505151517 | 66 | 194 | 0.0 | 2.6 | 0.00 | 0.00 | 0.00 | 70 | 1017.0 |
| 20260505151003 | 64 | 76 | 0.0 | 2.6 | 0.00 | 0.00 | 0.00 | 74 | 1017.0 |
| 20260505150507 | 63 | 348 | 0.0 | 0.0 | 0.00 | 0.00 | 0.00 | 74 | 1017.0 |
| 20260505140508 | 57 | 86 | 0.0 | 0.0 | 0.00 | 0.00 | 0.00 | 83 | 1016.8 |
| 20260505125006 | 53 | 167 | 0.0 | 1.7 | 0.00 | 0.00 | 0.00 | 82 | 1016.5 |
| 20260505124522 | 53 | 150 | 0.0 | 0.0 | 0.00 | 0.00 | 0.00 | 82 | 1016.4 |
| 20260505124010 | 53 | 148 | 0.0 | 0.0 | 0.00 | 0.00 | 0.00 | 82 | 1016.5 |
| 20260505123512 | 53 | 219 | 0.0 | 0.0 | 0.00 | 0.00 | 0.00 | 83 | 1016.4 |
| 20260505123028 | 53 | 225 | 0.0 | 0.0 | 0.00 | 0.00 | 0.00 | 83 | 1016.2 |
| 20260505122509 | 53 | 227 | 0.0 | 0.0 | 0.00 | 0.00 | 0.00 | 82 | 1016.2 |
| 20260505122004 | 53 | 227 | 0.0 | 0.0 | 0.00 | 0.00 | 0.00 | 83 | 1016.1 |
| 20260505121512 | 53 | 241 | 0.0 | 0.0 | 0.00 | 0.00 | 0.00 | 83 | 1016.1 |
| 20260505121005 | 53 | 255 | 0.0 | 0.0 | 0.00 | 0.00 | 0.00 | 82 | 1016.2 |
| 20260505120504 | 52 | 255 | 0.0 | 0.0 | 0.00 | 0.00 | 0.00 | 82 | 1016.3 |
| 20260505120019 | 52 | 267 | 0.0 | 0.0 | 0.00 | 0.00 | 0.00 | 82 | 1016.3 |
| 20260505115504 | 52 | 267 | 0.0 | 0.0 | 0.00 | 0.00 | 0.00 | 82 | 1016.3 |
| 20260505115009 | 52 | 267 | 0.0 | 0.0 | 0.00 | 0.00 | 0.00 | 81 | 1016.2 |
| 20260505114507 | 52 | 267 | 0.0 | 0.0 | 0.00 | 0.00 | 0.00 | 81 | 1016.0 |
| 20260505114006 | 52 | 267 | 0.0 | 0.0 | 0.00 | 0.00 | 0.00 | 80 | 1015.9 |
| 20260505113505 | 52 | 267 | 0.0 | 0.0 | 0.00 | 0.00 | 0.00 | 80 | 1015.7 |
| 20260505113024 | 52 | 267 | 0.0 | 0.0 | 0.00 | 0.00 | 0.00 | 80 | 1015.7 |
| 20260505112504 | 52 | 267 | 0.0 | 0.0 | 0.00 | 0.00 | 0.00 | 80 | 1015.7 |
| 20260505112003 | 52 | 267 | 0.0 | 0.0 | 0.00 | 0.00 | 0.00 | 80 | 1015.6 |
| 20260505111516 | 52 | 267 | 0.0 | 0.0 | 0.00 | 0.00 | 0.00 | 80 | 1015.6 |
| 20260505111004 | 52 | 267 | 0.0 | 0.0 | 0.00 | 0.00 | 0.00 | 80 | 1015.6 |
| 20260505110504 | 52 | 267 | 0.0 | 0.0 | 0.00 | 0.00 | 0.00 | 80 | 1015.6 |
| 20260505102008 | 53 | 11 | 0.0 | 0.0 | 0.00 | 0.00 | 0.00 | 78 | 1015.4 |
| 20260505101525 | 53 | 11 | 0.0 | 0.0 | 0.00 | 0.00 | 0.00 | 78 | 1015.4 |
| 20260505101003 | 53 | 11 | 0.0 | 0.0 | 0.00 | 0.00 | 0.00 | 78 | 1015.4 |
| 20260505100504 | 53 | 11 | 0.0 | 0.0 | 0.00 | 0.00 | 0.00 | 79 | 1015.6 |
| 20260505100030 | 53 | 11 | 0.0 | 0.0 | 0.00 | 0.00 | 0.00 | 79 | 1015.6 |
| 20260505095503 | 53 | 11 | 0.0 | 0.0 | 0.00 | 0.00 | 0.00 | 79 | 1015.5 |
| 20260505095002 | 53 | 11 | 0.0 | 0.0 | 0.00 | 0.00 | 0.00 | 78 | 1015.5 |
| 20260505094517 | 53 | 11 | 0.0 | 0.0 | 0.00 | 0.00 | 0.00 | 78 | 1015.4 |
| 20260505094005 | 53 | 11 | 0.0 | 0.0 | 0.00 | 0.00 | 0.00 | 78 | 1015.2 |
| 20260505093507 | 53 | 11 | 0.0 | 0.0 | 0.00 | 0.00 | 0.00 | 78 | 1015.3 |
| 20260505093024 | 54 | 11 | 0.0 | 0.0 | 0.00 | 0.00 | 0.00 | 78 | 1015.2 |
| 20260505092511 | 54 | 11 | 0.0 | 0.0 | 0.00 | 0.00 | 0.00 | 77 | 1015.2 |
| 20260505092004 | 54 | 11 | 0.0 | 0.0 | 0.00 | 0.00 | 0.00 | 77 | 1015.3 |
| 20260505091520 | 54 | 11 | 0.0 | 0.0 | 0.00 | 0.00 | 0.00 | 77 | 1015.4 |
| 20260505091008 | 54 | 11 | 0.0 | 0.0 | 0.00 | 0.00 | 0.00 | 77 | 1015.5 |
| 20260505090508 | 54 | 11 | 0.0 | 0.0 | 0.00 | 0.00 | 0.00 | 77 | 1015.6 |
| 20260505090017 | 54 | 11 | 0.0 | 0.0 | 0.00 | 0.00 | 0.00 | 77 | 1015.6 |
| 20260505085504 | 54 | 11 | 0.0 | 0.0 | 0.00 | 0.00 | 0.00 | 77 | 1015.6 |
| 20260505085003 | 54 | 11 | 0.0 | 0.0 | 0.00 | 0.00 | 0.00 | 77 | 1015.6 |
| 20260505084512 | 54 | 11 | 0.0 | 0.0 | 0.00 | 0.00 | 0.00 | 76 | 1015.6 |
| 20260505084003 | 54 | 11 | 0.0 | 0.0 | 0.00 | 0.00 | 0.00 | 76 | 1015.7 |
| 20260505083504 | 54 | 11 | 0.0 | 0.0 | 0.00 | 0.00 | 0.00 | 76 | 1015.6 |
| 20260505083024 | 54 | 11 | 0.0 | 0.0 | 0.00 | 0.00 | 0.00 | 76 | 1015.6 |
| 20260505082503 | 54 | 11 | 0.0 | 0.0 | 0.00 | 0.00 | 0.00 | 76 | 1015.5 |
| 20260505082007 | 54 | 11 | 0.0 | 0.0 | 0.00 | 0.00 | 0.00 | 76 | 1015.5 |
| 20260505081524 | 54 | 11 | 0.0 | 0.0 | 0.00 | 0.00 | 0.00 | 75 | 1015.5 |
| 20260505081004 | 55 | 11 | 0.0 | 0.0 | 0.00 | 0.00 | 0.00 | 75 | 1015.5 |
| 20260505080505 | 55 | 11 | 0.0 | 0.0 | 0.00 | 0.00 | 0.00 | 75 | 1015.6 |
| 20260505080023 | 55 | 11 | 0.0 | 0.0 | 0.00 | 0.00 | 0.00 | 75 | 1015.6 |
| 20260505075508 | 55 | 11 | 0.0 | 0.0 | 0.00 | 0.00 | 0.00 | 74 | 1015.6 |
| 20260505075008 | 55 | 11 | 0.0 | 0.0 | 0.00 | 0.00 | 0.00 | 74 | 1015.6 |
| 20260505074511 | 55 | 11 | 0.0 | 0.0 | 0.00 | 0.00 | 0.00 | 74 | 1015.5 |
| 20260505074009 | 55 | 11 | 0.0 | 0.0 | 0.00 | 0.00 | 0.00 | 75 | 1015.4 |
| 20260505073504 | 55 | 11 | 0.0 | 0.0 | 0.00 | 0.00 | 0.00 | 74 | 1015.4 |
| 20260505073031 | 55 | 11 | 0.0 | 0.0 | 0.00 | 0.00 | 0.00 | 74 | 1015.5 |
| 20260505072507 | 55 | 11 | 0.0 | 0.0 | 0.00 | 0.00 | 0.00 | 74 | 1015.5 |
| 20260505072007 | 56 | 11 | 0.0 | 0.0 | 0.00 | 0.00 | 0.00 | 74 | 1015.5 |
| 20260505071514 | 56 | 11 | 0.0 | 0.0 | 0.00 | 0.00 | 0.00 | 73 | 1015.5 |
| 20260505071006 | 56 | 11 | 0.0 | 0.0 | 0.00 | 0.00 | 0.00 | 73 | 1015.4 |
| 20260505070515 | 56 | 11 | 0.0 | 0.0 | 0.00 | 0.00 | 0.00 | 73 | 1015.5 |
| 20260505070026 | 56 | 11 | 0.0 | 0.0 | 0.00 | 0.00 | 0.00 | 73 | 1015.5 |
| 20260505065505 | 56 | 11 | 0.0 | 0.0 | 0.00 | 0.00 | 0.00 | 73 | 1015.5 |
| 20260505065007 | 56 | 11 | 0.0 | 0.0 | 0.00 | 0.00 | 0.00 | 72 | 1015.5 |
| 20260505064527 | 56 | 11 | 0.0 | 0.0 | 0.00 | 0.00 | 0.00 | 72 | 1015.5 |
| 20260505064005 | 56 | 11 | 0.0 | 0.0 | 0.00 | 0.00 | 0.00 | 72 | 1015.5 |
| 20260505063505 | 56 | 11 | 0.0 | 0.0 | 0.00 | 0.00 | 0.00 | 71 | 1015.5 |
| 20260505063013 | 57 | 11 | 0.0 | 0.0 | 0.00 | 0.00 | 0.00 | 71 | 1015.6 |
| 20260505062504 | 57 | 11 | 0.0 | 0.0 | 0.00 | 0.00 | 0.00 | 72 | 1015.6 |
| 20260505062010 | 57 | 11 | 0.0 | 0.0 | 0.00 | 0.00 | 0.00 | 72 | 1015.6 |
| 20260505061524 | 57 | 11 | 0.0 | 0.0 | 0.00 | 0.00 | 0.00 | 72 | 1015.6 |
| 20260505061007 | 57 | 11 | 0.0 | 0.0 | 0.00 | 0.00 | 0.00 | 72 | 1015.6 |
| 20260505060508 | 57 | 11 | 0.0 | 0.0 | 0.00 | 0.00 | 0.00 | 71 | 1015.7 |
| 20260505060022 | 57 | 11 | 0.0 | 0.0 | 0.00 | 0.00 | 0.00 | 70 | 1015.7 |
| 20260505055511 | 57 | 11 | 0.0 | 0.0 | 0.00 | 0.00 | 0.00 | 70 | 1015.7 |
| 20260505055013 | 58 | 11 | 0.0 | 0.0 | 0.00 | 0.00 | 0.00 | 70 | 1015.7 |
| 20260505054520 | 58 | 11 | 0.0 | 0.0 | 0.00 | 0.00 | 0.00 | 70 | 1015.7 |
| 20260505054010 | 58 | 11 | 0.0 | 0.0 | 0.00 | 0.00 | 0.00 | 69 | 1015.8 |
| 20260505053510 | 58 | 11 | 0.0 | 0.0 | 0.00 | 0.00 | 0.00 | 69 | 1015.8 |
| 20260505053027 | 58 | 11 | 0.0 | 0.0 | 0.00 | 0.00 | 0.00 | 68 | 1015.8 |
| 20260505052507 | 58 | 11 | 0.0 | 0.0 | 0.00 | 0.00 | 0.00 | 68 | 1015.9 |
| 20260505052011 | 59 | 11 | 0.0 | 0.0 | 0.00 | 0.00 | 0.00 | 67 | 1015.8 |
| 20260505051533 | 59 | 11 | 0.0 | 0.0 | 0.00 | 0.00 | 0.00 | 67 | 1015.8 |
| 20260505051007 | 59 | 11 | 0.0 | 0.0 | 0.00 | 0.00 | 0.00 | 67 | 1015.8 |
| 20260505050507 | 59 | 11 | 0.0 | 0.0 | 0.00 | 0.00 | 0.00 | 67 | 1015.7 |
| 20260505041521 | 60 | 11 | 0.0 | 0.0 | 0.00 | 0.00 | 0.00 | 64 | 1015.7 |
| 20260505041009 | 60 | 11 | 0.0 | 0.0 | 0.00 | 0.00 | 0.00 | 65 | 1015.7 |
| 20260505040506 | 61 | 11 | 0.0 | 0.0 | 0.00 | 0.00 | 0.00 | 64 | 1015.6 |
| 20260505040020 | 61 | 11 | 0.0 | 0.0 | 0.00 | 0.00 | 0.00 | 63 | 1015.6 |
| 20260505035512 | 61 | 11 | 0.0 | 0.0 | 0.00 | 0.00 | 0.00 | 62 | 1015.6 |
| 20260505035003 | 61 | 11 | 0.0 | 0.0 | 0.00 | 0.00 | 0.00 | 62 | 1015.8 |
| 20260505034515 | 61 | 11 | 0.0 | 0.0 | 0.00 | 0.00 | 0.00 | 62 | 1015.8 |
| 20260505034015 | 61 | 11 | 0.0 | 0.0 | 0.00 | 0.00 | 0.00 | 61 | 1015.8 |
| 20260505033506 | 61 | 11 | 0.0 | 0.0 | 0.00 | 0.00 | 0.00 | 61 | 1015.8 |
| 20260505033013 | 61 | 11 | 0.0 | 0.0 | 0.00 | 0.00 | 0.00 | 61 | 1015.9 |
| 20260505032505 | 62 | 11 | 0.0 | 0.0 | 0.00 | 0.00 | 0.00 | 61 | 1015.8 |
| 20260505032004 | 62 | 11 | 0.0 | 0.0 | 0.00 | 0.00 | 0.00 | 60 | 1015.9 |
| 20260505031513 | 62 | 11 | 0.0 | 0.0 | 0.00 | 0.00 | 0.00 | 61 | 1015.9 |
| 20260505031006 | 62 | 11 | 0.0 | 0.0 | 0.00 | 0.00 | 0.00 | 58 | 1015.8 |
| 20260505030510 | 62 | 10 | 0.0 | 0.0 | 0.00 | 0.00 | 0.00 | 59 | 1015.8 |
| 20260505030019 | 62 | 10 | 0.0 | 0.0 | 0.00 | 0.00 | 0.00 | 59 | 1015.8 |
| 20260505025503 | 62 | 11 | 0.0 | 0.0 | 0.00 | 0.00 | 0.00 | 58 | 1015.7 |
| 20260505025004 | 63 | 10 | 0.0 | 0.0 | 0.00 | 0.00 | 0.00 | 59 | 1015.7 |